Flag for U.S.A. Weather past 2 weeks in Fort Wayne, Indiana, U.S.A.

Now
64 °F

Partly sunny.


Feels Like: 64 °F
Forecast: 58 / 72 °F
Wind: 9 mph from Northwest

Location: Fort Wayne International Airport

Current Time: Jul 28, 2014 at 8:37:09 AM

Latest Report: Jul 28, 2014 at 7:54 AM


Visibility: 10 mi

Pressure: 29.89 "Hg

Humidity: 84%

Dew point: 59 °F

Location of Fort WayneLocation

Historic Weather in Fort Wayne — Graph

°F

Fort Wayne temperature yesterday

Maximum temperature yesterday: 82 °F (at 3:54 PM)
Minimum temperature yesterday: 65 °F (at 11:54 PM)
Average temperature yesterday: 72 °F

Past Weeks' High & Low Weather Summary

 TemperatureHumidityPressure
High86 °F (Jul 14, 3:54 PM)97% (Jul 20, 5:54 AM)30.22 "Hg (Jul 20, 5:54 AM)
Low50 °F (Jul 17, 6:54 AM)33% (Jul 17, 5:54 PM)29.65 "Hg (Jul 27, 3:54 PM)
Average69 °F72%29.99 "Hg
* Reported Jul 13 6:54 AM — Jul 28 6:54 AM, Fort Wayne, Weather by CustomWeather, © 2014

Note: Actual official high and low records may vary slightly from our data, if they occured in-between our weather recording intervals... More about our weather records

Advertising

Fort Wayne weather history for previous 24 hours

 ConditionsComfort  
Time TempWeatherWind HumidityBarometerVisibility
6:54 AM
Jul 28
63 °FMostly cloudy.7 mph87%29.87 "Hg10 mi
5:54 AM62 °FPartly cloudy.7 mph86%29.85 "Hg10 mi
4:54 AM63 °FOvercast.10 mph84%29.82 "Hg10 mi
3:54 AM63 °FOvercast.10 mph84%29.79 "Hg10 mi
2:54 AM64 °FOvercast.8 mph81%29.78 "Hg10 mi
1:54 AM63 °FPassing clouds.9 mph84%29.78 "Hg10 mi
12:54 AM63 °FPassing clouds.10 mph84%29.78 "Hg10 mi
11:54 PM
Jul 27
65 °FClear.10 mph78%29.78 "Hg10 mi
10:54 PM66 °FPassing clouds.9 mph73%29.78 "Hg10 mi
9:54 PM69 °FPartly sunny.8 mph70%29.76 "Hg10 mi
8:54 PM70 °FBroken clouds.9 mph76%29.73 "Hg10 mi
7:54 PM71 °FStrong thunderstorms. Broken clouds.14 mph76%29.71 "Hg1 mi
6:54 PM74 °FPartly sunny.8 mph79%29.69 "Hg10 mi
5:54 PM74 °FScattered clouds.9 mph79%29.68 "Hg10 mi
5:02 PM68 °FThunderstorms. Broken clouds.33 mph84%29.70 "Hg1 mi
3:54 PM82 °FScattered clouds.13 mph70%29.65 "Hg8 mi
2:54 PM80 °FPartly sunny.14 mph76%29.69 "Hg6 mi
2:01 PM77 °FPartly sunny.14 mph82%29.74 "Hg8 mi
12:54 PM74 °FMostly cloudy.13 mph88%29.74 "Hg10 mi
11:54 AM72 °FThunderstorms. Fog.7 mph91%29.75 "Hg6 mi
10:54 AM72 °FMostly cloudy.8 mph87%29.76 "Hg7 mi
9:54 AM73 °FMostly cloudy.8 mph88%29.77 "Hg10 mi
8:54 AM73 °FBroken clouds.No wind81%29.77 "Hg10 mi
Weather by CustomWeather, © 2014

See weather overviewHow to use our weather pages